Location: Chervonnoye
(48.6000°N, 34.4000°E)
Time: 20:14:37
(UTC+00:00)

RS-44 - Pass Details

Date: 30 November 2022
Orbit: 1174 x 1511 km, 82.5° (Epoch: 07 February)

Event Time Altitude Azimuth Distance (km) Brightness Sun altitude
Exits shadow 04:20:43 - 279° (W) 3,664 ? -8.3°
Reaches altitude 10° 04:21:43 10° 285° (WNW) 3,517 ? -8.1°
Maximum altitude 04:25:49 14° 315° (NW) 3,260 ? -7.5°
Drops below altitude 10° 04:30:02 10° 344° (NNW) 3,624 ? -6.9°
Sets 04:35:05 0° 8° (N) 4,647 ? -6.1°
